THOR ABLESTAR DEB, 644

Orbit data source: Space-Track

THOR ABLESTAR DEB, 644 is space debris in LEO originally from a launch on Thu, 29 Jun 1961 UTC launched from the Air Force Eastern Test Range (AFETR). Debris objects in space refer to the collection of defunct objects orbiting the Earth. Examples of debris include non-operational satellites, rocket bodies, and fragments generated from explosions, collisions, or faulty payload assembly.

Loading next visibility...
Identifier
644, 1961-015GV
Orbit
LEO
Country
Flag of USUS
Related business
Manufacturer
Unknown
Mission
Spacecraft
Bus & Motor
Unknown
Mass
Unknown
Launch date (UTC)
1961-06-29 (65 years ago)
Launch vehicle
Unknown
Launch site
Air Force Eastern Test Range (AFETR)
Object type
Payload
Rocket body
Debris
Shape & HBR
Unknown shape, 0.1 m
Radar Cross Section
Small (<0.1 m²)

Expand to show TLE details & history
Last TLE update: 12 hours ago

TLE from 12 hours ago
0 THOR ABLESTAR DEB
1   644U 61015GV  26131.14041801  .00001223  00000-0  15972-2 0  9993
2   644  67.0994  21.2646 0133100 142.5677   8.9228 13.61302631192694
Epoch: 2026-05-11T03:22Z
TLE epoch observation values (Epoch: 2026-05-11T03:22:12.116Z)
Latitude
25.91457°
Longitude
-90.00067°
Altitude
935.875 km
Speed
7.435 km/s
True Right ascension
12h 37m 55s
True Declination
25° 46' 59"
Sunlit
Object was in full shadow at epoch
Visualization orbit readout
Latitude
Unknown
Longitude
Unknown
Altitude
Unknown
Speed
Unknown
Apparent Right ascension
Unknown
Apparent Declination
Unknown
Sunlit
N/A
Visualization observer readout
Local Sidereal Time
23:49:01
Azimuth
Unknown
Elevation
Unknown
Doppler factor
Unknown
Orbital elements
Apogee altitude
1,127.938 km
Perigee altitude
930.751 km
Semi-major axis
7,407.481 km
Eccentricity
0.01331
Inclination
67.0994°
RAAN
21.2646°
Arg. of periapsis
142.5677°
True anomaly
9.16332°
Mean anomaly
8.9228°
Eccentric anomaly
9.04266°
Mean motion
3.40437 °/min
Orbital period
105.75 mins
BSTAR
0.0015972
Loading maneuver chart data...
Computing Atmospheric mass density...

Documentation

Showing up to 5 results
|